Weather History for El Arish, Egypt

Change the Weather History Date:

Monday, March 11, 2013

  Actual Average Record
Temperature  
Mean Temperature 68 °F -  
Max Temperature 86 °F 73 °F - ()
Min Temperature 49 °F 51 °F - ()
Cooling Degree Days 2    
Growing Degree Days 18 (Base 50)    
Moisture  
Dew Point 42 °F    
Average Humidity 42    
Maximum Humidity 82    
Minimum Humidity 14    
Precipitation  
Precipitation 0.00 in 0.02 in - ()
Sea Level Pressure  
Sea Level Pressure 29.97 in    
Wind  
Wind Speed 5 mph ()    
Max Wind Speed 10 mph    
Max Gust Speed -    
Visibility 4.4 miles    
Events      
T = Trace of Precipitation, MM = Missing Value Source: Averaged Metar Reports

Daily Weather History Graph

Daily Weather History Graph

Search for Another Location

Airport:

Trip Planner

Search our weather history database for the weather conditions in past years. The results will help you decide how hot, cold, wet, or windy it might be!

Date:

Astronomy

Mar. 11, 2013 Rise Set
Actual Time 5:59 AM EET 5:50 PM EET
Civil Twilight 5:35 AM EET 6:14 PM EET
Nautical Twilight 5:07 AM EET 6:42 PM EET
Astronomical Twilight 4:39 AM EET 7:10 PM EET
Moon 5:22 AM EET (3/11) 5:37 PM EET (3/11)
Length of Visible Light 12h 38m
Length of Day
11h 50m
Waning Crescent, 0% of the Moon is Illuminated
Mar 11
Waning Crescent
Mar 11
New
Mar 19
First Quarter
Mar 27
Full
Apr 3
Last Quarter

Hourly Weather History & Observations

Time (EET) Temp. Dew Point Humidity Pressure Visibility Wind Dir Wind Speed Gust Speed Precip Events Conditions
12:00 AM 55.4 °F 44.6 °F 67% 30.01 in - SSE 4.6 mph - N/A   Clear
1:00 AM 53.6 °F 46.4 °F 77% 30.01 in - South 3.5 mph - N/A   Clear
2:00 AM 52 °F 45 °F 71% 30.00 in 6 mi South 3.5 mph - -  
2:00 AM 51.8 °F 44.6 °F 76% 29.98 in - South 3.5 mph - N/A   Clear
3:00 AM 51.8 °F 44.6 °F 76% 29.98 in - South 4.6 mph - N/A   Clear
4:00 AM 50.0 °F 44.6 °F 82% 29.98 in - SSE 3.5 mph - N/A   Clear
5:00 AM 53.6 °F 44.6 °F 72% 29.98 in - SSE 6.9 mph - N/A   Clear
6:00 AM 53.6 °F 44.6 °F 72% 29.98 in - South 3.5 mph - N/A   Clear
7:00 AM 55.4 °F 44.6 °F 67% 30.01 in - SSE 4.6 mph - N/A   Clear
8:00 AM 67 °F 45 °F 34% 30.02 in 4 mi South 5.8 mph - -   Haze
8:00 AM 68.0 °F 44.6 °F 43% 30.01 in 3.7 mi South 5.8 mph - N/A   Unknown
9:00 AM 73.4 °F 42.8 °F 33% 30.01 in 3.7 mi South 8.1 mph - N/A   Unknown
10:00 AM 77.0 °F 42.8 °F 29% 30.01 in 3.7 mi South 9.2 mph - N/A   Unknown
11:00 AM 80.6 °F 39.2 °F 23% 29.98 in 3.7 mi South 6.9 mph - N/A   Unknown
12:00 PM 84.2 °F 37.4 °F 19% 29.98 in 3.7 mi West 5.8 mph - N/A   Unknown
1:00 PM 86.0 °F 39.2 °F 19% 29.95 in 3.7 mi West 6.9 mph - N/A   Unknown
2:00 PM 85 °F 43 °F 14% 29.93 in 6 mi North 5.8 mph - -  
2:00 PM 86.0 °F 42.8 °F 22% 29.92 in - North 5.8 mph - N/A   Clear
3:00 PM 86.0 °F 42.8 °F 22% 29.92 in - NNE 5.8 mph - N/A   Clear
4:00 PM 86.0 °F 39.2 °F 19% 29.92 in - NNE 5.8 mph - N/A   Clear
5:00 PM 80.6 °F 44.6 °F 28% 29.92 in - NE 4.6 mph - N/A   Clear
6:00 PM 75.2 °F 44.6 °F 34% 29.92 in - ENE 3.5 mph - N/A   Clear
7:00 PM 73.4 °F 41.0 °F 31% 29.95 in - SSE 2.3 mph - N/A   Clear
8:00 PM 72 °F 40 °F 20% 29.96 in 6 mi South 2.3 mph - -   Clear
8:00 PM 71.6 °F 39.2 °F 31% 29.95 in - South 2.3 mph - N/A   Clear
9:00 PM 71.6 °F 39.2 °F 31% 29.95 in - ESE 6.9 mph - N/A   Clear
10:00 PM 68.0 °F 39.2 °F 35% 29.95 in - South 8.1 mph - N/A   Clear
11:00 PM 68.0 °F 37.4 °F 33% 29.95 in - SSE 10.4 mph - N/A   Clear